Forside
METAR-TAF:

METAR-TAF

Lufthavne :

Warrensburg, Missouri, USA

Breddekreds: 38-47-03N, længdekreds: 093-48-10W, højde: 243 m

Aktuelle vejr

Denne rapport blev lavet for 15 minutter siden, kl. 17:55 UTC
Vind 16 kt fra østsydøst med vindstød på up til 20 kt
Temperatur -2°C
Fugtighed 69%
Tryk 1022 hPa
Sigt: 16.1 km
skyfri

METAR: KRCM 211755Z AUTO 12016G20KT 10SM CLR M02/M07 A3017 RMK AO2

Tid: 12:10 (18:10 UTC)


TAF: fraværende

Vejrobservationer og prognoser fra mere end 4000 lufthavne (METAR og TAF).

De gule og røde prikker repræsenterer de meteorologiske stationer.

Flyt musen over at se navnet på stationen.

Så klik over at se vejr observationer og prognoser.

At skifte det kort: Klik på de grønne knapper med et sort kors for at zoome ind; på den grønne knap med en bindestreg for at zoome ud; eller på de grønne pile for tilstødende kort.


METAR-TAF: